Tracking 20092 objects as of 14-Dec-2019
HD Live streaming from Space Station
objects crossing your sky now

COSMOS 2251 DEB

Track COSMOS 2251 DEB now!
10-day predictions


NORAD ID: 34434
Int'l Code: 1993-036SB
Perigee: 754.5 km
Apogee: 1,259.3 km
Inclination: 74.1 °
Period: 105.1 minutes
Semi major axis: 7377 km
RCS: 0.0146 m2 (small)
Launch date: June 16, 1993
Source: Commonwealth of Independent States (former USSR) (CIS)
Launch site: PLESETSK MISSILE AND SPACE COMPLEX (PKMTR)

Note: This is SATELLITE DEBRIS
aabbcc
Your satellite tracking list
Your tracking list is empty




NASA's NSSDC Master Catalog

Two Line Element Set (TLE):
1 34434U 93036SB  19347.64773917 +.00000712 +00000-0 +55506-3 0  9991
2 34434 074.0669 052.0568 0342074 326.5190 188.2504 13.69938928538297
Source of the keplerian elements: AFSPC